Location: Biharia
(46.4333°N, 22.8000°E)
Time: 08:56:21
(UTC+00:00)

ATLAS 3B R/B - Pass Details

Date: 16 October 2021
Orbit: 989 x 1206 km, 63.8° (Epoch: 25 November)

Event Time Altitude Azimuth Distance (km) Brightness Sun altitude
Rises 18:29:01 0° 262° (W) 3,741 6.5 -29.5°
Reaches altitude 10° 18:31:59 10° 274° (W) 2,817 5.8 -30.0°
Maximum altitude 18:37:37 28° 332° (NNW) 1,855 4.3 -30.9°
Enters shadow 18:42:52 12° 27° (NNE) 2,764 4.8 -31.8°
